Hourly Data Report for May 05, 2021

FISHER BRANCH (AUT)
MANITOBA
Current Station Operator: ECCC - MSC

51°05'00.100" N
97°33'16.200" W
253.00 m
50309J6
71442
WSZ

Download Data

Hourly Data (May 2021)
Hourly Data Report for May 5, 2021
TIME
LST
Temp Definition
°C
Dew Point Definition
°C
Rel Hum Definition
%
Precip. Amount Definition
mm

Wind Dir Definition
10's deg

Wind Spd Definition
km/h
Visibility Definition
km
Stn Press Definition
kPa
Hmdx Definition


Wind Chill Definition


Weather Definition


00:00 -3.9 -7.3 77 0.0 32 2   99.16   -5 LegendNANA
01:00 -5.3 -7.6 84 0.0 30 5   99.19   -8 LegendNANA
02:00 -4.1 -6.7 82 0.0 30 8   99.20   -8 LegendNANA
03:00 -7.5 -8.8 90 0.0 29 7   99.22   -11 LegendNANA
04:00 -4.9 -7.4 82 0.0 29 10   99.21   -9 LegendNANA
05:00 -5.3 -7.8 83 0.0 29 8   99.27   -9 LegendNANA
06:00 -3.2 -7.0 75 0.2 31 8   99.32   -6 LegendNANA
07:00 1.1 -4.2 68 0.0 33 10   99.35     LegendNANA
08:00 3.6 -3.9 58 0.0 35 9   99.38     LegendNANA
09:00 5.0 -5.1 48 0.0 35 12   99.37     LegendNANA
10:00 6.0 -6.5 40 0.0 34 11   99.37     LegendNANA
11:00 6.3 -7.4 37 0.0 31 11   99.36     LegendNANA
12:00 8.4 -6.8 33 0.0 34 15   99.32     LegendNANA
13:00 8.8 -7.4 31 0.0 32 12   99.28     LegendNANA
14:00 9.2 -7.0 31 0.0 35 11   99.24     LegendNANA
15:00 9.0 -7.4 31 0.0 32 11   99.21     LegendNANA
16:00 9.5 -7.1 30 0.0 3 9   99.20     LegendNANA
17:00 9.3 -7.7 29 0.0 32 8   99.20     LegendNANA
18:00 9.9 -7.1 29 0.0 35 10   99.17     LegendNANA
19:00 7.6 -6.0 37 0.0 11 16   99.18     LegendNANA
20:00 4.8 -6.3 44 0.0 15 17   99.16     LegendNANA
21:00 2.5 -7.1 49 0.0 17 10   99.21     LegendNANA
22:00 -0.7 -7.8 59 0.0 16 3   99.19   -2 LegendNANA
23:00 -1.7 -8.0 62 0.0 7 2   99.22   -2 LegendNANA

Notes on Data Quality.

Legend

  • E = Estimated
  • M = Missing
  • NA = Not Available*
  • [empty] = Indicates an unobserved value
Date modified: